RH
22 21 20 20 18 18 18 17 17 18 18 17 17 17 18 18 15 14 13 14 14 12 12 12 12 14 19 26 31 30 28 28 26 25 22 21 21 22 23 24 25 29 37 30 28
17 17 17 13 13 10 12 13 12 14 15 16 16 16 16 15 14 14 15 15 15 14 13 12 11 11 14 19 22 24 27 28 28 28 28 26 26 26 28 28 30 29 31 33 39
8 9 9 15 21 27 20 10 10 9 10 11 12 10 11 12 16 12 12 13 13 13 11 11 10 11 12 15 18 24 27 29 30 28 30 35 37 38 35 30 31 31 34 38 39
11 10 10 12 22 24 29 14 21 10 7 7 8 37 41 22 16 19 12 16 15 13 9 10 12 12 14 15 19 24 27 36 37 36 31 29 29 34 32 26 26 33 32 34 35
42 29 31 43 49 47 40 33 25 24 44 21 26 37 42 33 19 19 20 25 21 8 9 13 26 27 21 21 24 26 30 39 42 36 35 35 30 26 27 26 27 33 35 37 38
57 58 63 71 71 71 66 56 47 46 54 54 57 55 56 42 34 30 32 36 21 13 19 30 30 34 33 32 34 33 32 44 41 35 40 43 42 37 33 30 26 31 36 35 40
75 79 78 74 72 73 68 70 72 74 74 65 61 60 59 50 45 42 42 40 22 30 34 38 36 37 41 42 48 48 34 42 44 34 42 44 44 40 40 38 33 28 30 34 40
84 79 70 68 70 71 76 82 80 80 74 67 71 64 61 61 56 50 43 38 35 42 39 36 37 38 41 38 45 50 39 35 37 40 48 50 49 48 48 47 44 43 40 36 39
89 82 92 64 72 82 63 70 76 74 70 68 74 69 63 64 57 52 50 43 40 41 42 40 35 33 40 39 35 30 28 28 28 41 50 52 47 53 51 47 44 44 44 43 43
79 98 100 92 82 88 58 58 63 79 75 71 76 72 66 53 49 51 52 52 49 43 41 40 35 36 43 42 39 37 32 34 45 53 53 53 48 47 45 43 42 42 44 48 49
34 92 98 98 98 96 74 89 91 63 86 83 77 79 73 66 52 55 49 48 51 50 42 39 40 34 33 33 42 50 53 56 52 48 39 39 35 34 32 34 31 34 40 39 37
19 12 90 98 97 98 97 93 100 80 70 90 64 72 77 71 64 54 55 45 44 43 35 39 40 30 31 28 24 20 17 20 14 16 29 32 28 25 26 30 36 43 45 45 38
11 8 7 36 46 88 60 63 65 36 70 64 79 63 75 64 72 78 62 57 47 34 42 42 37 31 28 24 21 16 14 16 20 22 25 30 20 25 26 34 42 44 41 34 27
16 11 8 7 7 8 9 10 9 8 12 32 41 60 58 60 57 97 72 72 66 72 46 39 49 46 41 33 27 27 33 34 33 31 26 30 19 20 25 32 40 41 35 29 26
28 22 18 12 11 9 10 11 12 14 21 17 14 21 46 37 53 98 74 80 79 79 62 54 52 42 37 45 39 42 41 41 44 45 38 36 48 26 38 36 36 33 32 30 28
92 59 54 43 30 21 22 22 47 86 20 19 19 19 18 19 32 90 94 77 89 86 66 50 49 49 44 36 28 23 25 38 44 53 42 50 63 29 38 41 39 37 34 35 37
96 100 98 95 84 64 53 62 65 82 38 28 23 22 23 23 19 23 52 86 81 82 83 88 72 58 68 73 60 38 40 70 62 68 63 69 67 46 44 47 48 44 46 48 44
32 41 68 95 100 100 100 97 96 97 56 53 48 43 37 37 32 26 18 19 25 32 30 31 36 55 62 68 55 53 53 59 80 86 77 75 62 53 56 56 53 52 52 51 53
46 18 13 22 17 38 98 100 91 88 63 60 61 58 51 55 53 47 44 38 30 29 33 34 34 32 33 41 48 42 48 86 95 86 78 67 60 60 57 51 51 51 53 58 61
81 99 83 32 12 14 32 62 96 85 86 87 86 83 69 67 62 56 55 49 52 56 58 57 55 50 52 53 47 52 76 96 98 97 86 70 60 52 54 55 54 64 61 64 70
19 21 60 83 69 26 48 60 60 66 85 82 88 97 83 75 74 73 60 51 64 79 100 86 86 82 79 70 76 77 75 75 73 60 53 57 59 58 52 48 50 57 68 65 57
18 19 18 18 21 44 64 81 79 58 88 95 95 91 80 80 87 72 60 64 72 78 91 94 100 98 94 99 92 90 88 82 68 67 66 66 49 52 48 48 60 65 64 61 56
22 16 19 19 22 19 17 49 74 72 37 35 83 88 95 95 100 84 67 67 80 82 91 99 98 98 97 90 82 82 86 86 84 71 58 64 51 45 47 54 57 58 61 59 60
50 36 12 14 18 22 21 16 15 40 62 32 78 100 97 97 100 95 88 85 84 92 100 100 100 98 90 92 98 100 100 97 81 62 65 60 48 44 56 48 44 47 55 68 81
100 99 48 20 16 24 25 26 17 14 12 15 36 79 100 97 84 99 100 100 100 100 100 100 98 100 99 96 100 99 99 100 83 74 62 52 47 47 46 47 57 65 73 79 83
100 100 100 79 33 24 33 38 21 16 13 11 11 18 88 100 100 100 100 91 88 99 100 100 99 100 100 100 100 100 100 93 91 78 55 56 45 54 61 60 59 58 69 82 88
100 99 100 99 63 28 24 28 26 21 16 14 11 20 42 72 100 100 84 98 100 100 100 100 100 97 100 99 100 99 76 92 77 59 60 51 54 56 57 62 78 73 71 84 93
Wind_Speed
40 39 38 37 38 37 37 36 35 34 32 30 28 26 24 24 21 22 23 21 19 20 19 17 16 16 16 17 16 15 18 19 21 23 22 23 23 23 25 28 32 35 38 36 30
42 41 40 39 39 37 39 40 39 38 36 36 33 30 27 29 28 25 25 25 22 22 21 19 19 19 18 20 19 18 19 24 24 25 26 26 26 28 30 31 34 35 37 36 33
43 41 41 40 38 39 40 40 39 40 39 39 34 32 30 32 31 30 29 27 26 26 24 22 22 22 21 21 21 21 22 25 28 27 27 26 27 29 32 34 31 32 32 30 28
42 43 42 44 41 42 42 41 41 39 39 36 34 32 32 35 34 31 32 30 29 27 24 24 23 24 23 24 22 23 25 28 29 28 29 29 30 32 30 32 31 27 26 30 32
45 48 47 44 43 44 45 43 43 42 42 36 36 37 36 36 36 33 32 31 31 27 24 23 20 21 25 26 24 24 29 29 28 26 28 28 32 35 33 32 31 29 29 30 31
46 48 47 46 47 46 46 45 43 43 44 40 39 38 36 37 35 35 35 35 33 27 23 22 23 22 24 27 28 26 27 26 25 26 25 25 28 28 30 32 33 32 33 33 33
47 48 49 47 44 42 41 39 41 40 36 34 34 31 30 35 33 34 33 34 33 28 24 21 21 21 22 26 27 29 27 28 28 28 26 29 27 26 28 31 33 34 34 33 34
48 45 43 44 42 40 40 37 35 33 32 31 28 25 28 31 30 30 32 35 31 27 23 21 21 20 20 24 25 27 25 27 30 30 31 31 30 31 32 32 34 35 36 35 35
44 45 43 41 40 41 38 37 36 33 31 30 27 28 30 28 28 28 30 34 31 27 26 23 23 22 22 22 22 22 24 26 29 29 29 31 33 33 34 35 36 36 37 39 40
49 42 43 45 43 43 41 42 38 37 35 32 31 28 28 29 29 28 28 28 28 26 26 27 24 24 25 24 25 23 24 27 29 30 34 36 34 30 31 32 34 36 37 37 36
57 53 49 47 45 48 44 41 40 41 38 40 35 33 31 30 30 32 28 26 26 25 28 28 26 28 30 27 26 25 27 29 32 34 31 31 29 29 29 29 29 30 32 32 34
62 60 59 60 57 50 49 51 44 44 43 39 37 33 37 36 33 37 32 28 27 27 28 28 27 31 27 26 27 26 27 28 31 32 32 33 34 36 33 30 30 32 34 38 42
67 66 65 68 67 61 61 58 55 51 53 44 43 39 37 42 37 39 38 33 28 29 28 31 31 31 28 29 28 30 28 29 31 32 34 36 40 40 38 36 36 37 40 40 42
74 73 71 70 70 67 66 61 59 60 63 59 48 50 45 42 43 35 43 39 37 32 34 35 34 34 34 31 31 31 30 31 34 37 40 42 45 44 43 43 42 41 40 42 44
79 78 77 75 74 72 67 66 64 64 67 65 61 56 52 46 45 37 35 40 40 37 38 35 34 35 33 31 35 35 37 38 39 42 44 47 47 47 46 44 42 43 45 46 48
85 83 81 80 78 76 72 69 58 59 71 72 69 63 56 53 48 46 43 40 36 37 40 40 36 34 34 36 39 41 44 45 46 48 49 47 46 50 47 43 43 45 46 48 51
80 78 81 85 83 79 73 62 64 67 76 76 73 72 67 58 53 52 50 49 44 44 44 43 47 46 45 46 45 42 43 46 48 49 48 47 49 50 52 47 47 49 50 55 57
74 73 73 74 73 75 80 64 69 48 68 74 76 78 76 67 61 56 57 58 57 54 52 51 51 48 50 50 46 42 43 44 46 46 49 50 55 53 53 54 51 56 57 53 53
74 71 70 68 65 66 66 71 77 72 75 76 75 68 69 67 64 64 63 63 61 54 52 51 51 50 48 45 41 44 43 38 42 48 51 51 53 54 55 56 56 51 50 52 53
80 80 73 67 66 66 68 68 70 65 65 68 73 72 75 70 68 68 67 66 63 57 55 52 52 52 48 45 48 44 39 41 47 52 55 57 58 60 58 56 52 50 51 52 52
80 80 75 74 72 71 70 68 68 61 62 64 67 68 71 69 65 61 62 63 58 47 41 44 44 48 49 53 47 43 43 48 50 48 50 55 61 58 55 52 50 50 50 50 50
84 84 76 75 77 78 76 71 69 63 61 63 65 62 62 64 70 70 68 63 58 57 51 47 49 52 53 50 48 50 52 51 51 49 48 51 53 50 50 48 46 47 49 51 52
81 86 82 80 81 80 75 72 70 67 66 68 63 63 57 51 52 55 58 58 58 57 54 49 54 55 53 53 55 51 45 43 45 47 50 52 51 47 47 46 47 49 51 52 55
62 70 85 84 82 78 75 74 69 66 67 61 57 53 57 61 53 52 51 51 52 55 48 54 56 53 53 52 47 45 44 43 46 51 50 51 47 47 45 46 47 49 51 52 52
46 46 59 77 80 75 74 72 71 68 65 65 66 60 48 51 51 47 40 47 42 49 57 55 59 58 58 52 54 51 49 46 52 51 50 45 48 43 42 46 47 49 52 51 50
52 42 42 43 61 66 64 67 70 65 66 65 65 62 62 58 50 62 65 53 56 56 51 56 55 55 53 51 55 57 51 49 52 45 48 46 46 39 42 44 48 51 51 51 51
52 63 53 45 52 58 63 61 59 58 62 61 60 63 67 67 62 50 48 51 41 50 54 56 58 54 55 59 53 51 49 43 42 44 45 46 41 42 45 49 53 54 54 53 48
Wind_Direction
256 257 257 260 260 262 264 264 265 267 266 265 265 266 270 273 269 271 271 267 265 267 266 265 262 261 263 263 259 264 270 262 263 270 277 281 283 282 282 286 289 290 292 292 293
255 256 256 257 260 262 264 263 263 264 266 267 266 268 272 275 274 273 273 273 271 268 266 262 264 261 256 255 258 259 264 268 267 267 273 278 279 279 278 276 278 287 292 297 302
254 254 255 256 261 265 266 263 266 264 262 265 265 267 272 273 273 274 273 271 271 271 267 264 263 259 256 255 254 253 259 262 266 268 270 273 273 271 270 275 282 287 291 292 293
260 258 257 259 260 263 263 264 264 264 264 262 262 268 277 272 269 271 269 270 268 266 268 263 260 260 255 253 253 256 254 256 259 263 268 272 273 270 272 279 289 289 293 301 303
260 259 258 259 261 262 262 262 260 260 268 265 266 271 273 269 264 264 265 268 267 260 259 258 258 264 263 260 254 253 256 260 263 266 267 272 275 278 278 282 285 283 290 296 296
255 258 260 262 264 261 262 261 261 263 263 264 270 267 266 261 262 262 265 267 262 258 252 255 260 255 255 259 261 257 258 260 261 269 271 271 272 284 285 281 279 279 281 285 290
256 259 262 261 259 259 259 259 260 259 258 259 263 264 259 256 255 260 263 260 256 257 257 257 258 260 255 257 265 265 257 255 260 267 265 270 276 278 278 280 279 276 278 279 283
258 254 256 257 255 254 256 256 254 252 253 256 254 252 260 255 253 254 257 253 253 252 253 249 252 256 258 261 261 262 257 252 254 261 263 267 277 281 280 277 274 274 274 273 276
254 250 250 251 254 254 251 250 253 252 254 249 248 259 266 257 250 250 246 250 251 245 246 243 248 253 257 260 256 253 253 253 256 260 265 270 276 279 277 277 277 277 276 276 279
246 241 241 250 251 251 250 250 252 249 251 249 248 253 259 261 251 240 241 245 250 247 243 245 252 257 257 253 250 253 248 249 255 262 267 269 269 269 269 271 274 277 280 283 284
247 241 239 242 245 245 245 251 247 249 252 248 256 252 258 260 256 245 244 247 245 248 250 250 256 250 251 259 259 255 253 256 261 267 270 270 268 268 269 271 275 277 278 277 276
245 243 241 242 241 242 244 246 252 252 249 248 254 253 253 254 253 254 246 246 247 251 256 255 247 252 253 257 261 266 266 265 269 270 268 266 267 269 272 276 277 275 276 280 286
247 244 243 244 249 249 253 252 255 256 251 241 251 254 250 253 251 248 250 246 247 250 250 249 247 251 255 261 266 269 271 272 274 275 273 270 274 276 278 277 277 280 285 287 289
247 247 246 246 248 248 251 258 259 259 256 251 244 248 251 257 256 245 248 249 249 249 248 249 254 257 259 264 267 271 271 271 271 272 273 276 279 279 278 282 286 288 288 289 291
248 248 248 248 248 249 250 254 257 259 258 257 253 245 248 253 257 247 248 248 250 248 246 248 250 258 263 269 272 277 278 275 271 269 272 274 275 282 278 280 285 285 286 290 294
248 248 248 248 249 250 252 253 254 251 253 254 255 255 250 250 249 251 250 249 250 246 247 251 252 255 263 271 273 274 276 274 272 271 272 277 275 279 277 280 281 285 287 291 295
252 249 248 249 248 248 250 250 249 247 248 252 253 256 255 252 249 248 250 254 257 259 257 261 259 260 264 271 276 277 274 272 272 273 278 275 270 277 276 281 284 287 291 294 293
250 252 255 250 247 249 249 242 240 243 247 251 254 253 254 256 254 251 254 255 257 258 261 263 264 268 268 269 271 265 265 270 272 271 270 270 271 274 277 281 287 290 293 289 285
248 249 250 252 253 254 246 243 242 242 251 253 251 253 256 257 257 259 257 257 258 260 260 263 262 266 268 267 262 268 268 268 263 266 267 271 274 278 284 291 292 291 288 287 288
249 247 244 246 245 245 247 246 246 248 248 246 243 249 254 256 257 260 261 261 263 264 262 264 267 267 266 260 264 268 266 260 267 273 275 276 279 284 288 289 288 286 285 286 285
244 243 242 242 242 241 239 243 251 249 245 245 245 247 251 255 256 254 257 259 262 260 251 261 261 259 258 261 265 264 264 267 268 266 272 279 282 283 287 289 287 285 283 283 287
242 242 240 240 241 240 241 240 244 240 237 243 248 246 250 251 252 255 255 256 256 257 256 261 255 248 254 254 254 257 261 262 263 271 271 271 278 288 289 286 284 284 285 287 289
246 241 238 237 240 240 240 242 241 241 239 242 244 247 248 244 246 253 256 254 252 253 255 251 246 249 249 255 257 265 264 260 267 265 264 270 287 291 287 285 285 285 284 286 288
250 249 238 235 238 239 239 240 239 238 241 242 236 241 247 248 245 245 248 248 248 249 249 250 253 247 255 266 264 257 252 260 256 257 266 275 287 290 287 288 287 283 284 288 290
230 246 244 241 238 236 236 235 236 235 237 236 235 231 238 245 244 240 243 233 233 237 246 251 248 253 261 264 263 245 249 255 255 260 270 283 284 287 288 285 286 287 287 289 292
204 229 238 243 236 234 237 236 233 233 236 236 238 236 230 232 232 240 232 248 245 247 249 249 255 259 260 263 258 244 244 249 254 265 276 281 284 288 280 283 290 288 287 287 288
223 219 225 232 239 234 235 237 239 236 234 237 237 234 233 229 238 244 242 237 235 242 251 245 255 259 256 264 251 241 245 251 264 275 280 282 285 281 283 285 290 292 290 288 291